DW4212 La Cabrera ES current weather conditions

sailwx.info

Wind from 178 at 0 knots gusting 5

Air temperature 17.8° C
Dewpoint 5.4° C

Last reported at 2016-May-05 11:39 UTC.
Time now 2016-May-05 12:19 UTC

Location: N 40°53' W 003°35'.
View on Google Maps.

See reports from other nearby stations

  
Tides and Currents Weather Stations Pressure Air Temp Water Temp Dewpoint Dewpoint Depression Visibility Wind Speed Wind Dir Waves Ship Positions
date/time (UTC)wind fromknots sea level pressurealtimeterstation pressurevisibilityair tempwater tempwave heightnotes
2016-May-05 11:39 178 0 gusting 5 17.8
2016-May-05 11:29 173 0 gusting 4 17.8
2016-May-05 11:19 186 17.8
2016-May-05 11:09 182 0 gusting 6 18.3
2016-May-05 10:59 180 0 gusting 5 19.4
2016-May-05 10:49 198 0 gusting 5 18.9
2016-May-05 10:39 171 18.3
2016-May-05 10:29 175 18.3
2016-May-05 10:19 159 18.3
2016-May-05 10:09 176 17.8
2016-May-05 09:59 142 17.2
2016-May-05 09:49 080 16.7
2016-May-05 09:39 080 16.1
2016-May-05 09:29 080 15.6
2016-May-05 09:19 080 15.6
2016-May-05 09:09 010 0 gusting 1 15.6
2016-May-05 08:59 010 15.0
2016-May-05 08:49 010 1 gusting 3 13.9
2016-May-05 08:39 012 0 gusting 4 13.9
2016-May-05 08:29 019 0 gusting 3 14.4
2016-May-05 08:19 092 14.4
2016-May-05 07:59 092 13.9
2016-May-05 07:49 092 13.9
2016-May-05 07:39 092 12.8
2016-May-05 07:29 092 12.2
2016-May-05 07:09 092 11.7
2016-May-05 06:59 092 11.1
2016-May-05 06:49 092 0 gusting 2 11.7
2016-May-05 06:39 349 11.7
2016-May-05 06:29 350 2 gusting 4 11.7
2016-May-05 06:19 346 2 gusting 4 11.7
2016-May-05 06:09 180 11.1
2016-May-05 05:59 180 11.7
2016-May-05 05:49 180 12.2
2016-May-05 05:39 180 12.2
2016-May-05 05:29 180 12.2
2016-May-05 05:19 180 12.2
2016-May-05 01:29 180 12.2
2016-May-05 01:19 180 12.2
2016-May-05 01:09 180 12.2
2016-May-05 00:59 180 12.2
2016-May-05 00:49 180 12.8
2016-May-05 00:39 180 12.8
2016-May-05 00:29 180 12.8
2016-May-05 00:19 180 12.8
2016-May-05 00:09 180 12.8
2016-May-04 23:59 180 12.8
2016-May-04 23:49 180 13.3
2016-May-04 23:39 180 13.9
2016-May-04 23:29 180 13.9
2016-May-04 23:19 180 14.4
2016-May-04 23:09 180 15.0
2016-May-04 22:59 180 15.0
2016-May-04 22:49 180 15.0
2016-May-04 22:39 180 15.0
2016-May-04 22:29 180 15.0
2016-May-04 22:19 180 15.6
2016-May-04 22:09 180 15.6
2016-May-04 21:59 180 15.6
2016-May-04 21:49 180 16.1
2016-May-04 21:39 180 16.1
2016-May-04 21:29 180 16.1
2016-May-04 21:19 180 16.7
2016-May-04 21:09 180 16.7
2016-May-04 20:59 180 16.7
2016-May-04 20:49 180 16.7
2016-May-04 20:39 180 17.2
2016-May-04 20:29 180 17.2
2016-May-04 20:19 180 17.8
2016-May-04 20:09 180 17.8
2016-May-04 19:59 180 18.3
2016-May-04 19:49 180 18.9
2016-May-04 19:39 180 18.9
2016-May-04 19:29 180 19.4
2016-May-04 19:19 180 20.0
2016-May-04 19:09 180 20.0
2016-May-04 18:59 180 20.0
2016-May-04 18:49 180 20.6
2016-May-04 18:39 180 20.6
2016-May-04 18:29 180 20.6
2016-May-04 18:19 180 21.1
2016-May-04 18:09 180 21.1
2016-May-04 17:59 181 0 gusting 3 21.7
2016-May-04 17:49 189 0 gusting 4 21.7
2016-May-04 17:39 184 21.7
2016-May-04 17:29 170 0 gusting 6 22.2
2016-May-04 17:19 191 0 gusting 4 22.2
2016-May-04 17:09 188 0 gusting 4 22.8
2016-May-04 16:59 192 0 gusting 5 22.8
2016-May-04 16:49 182 22.8
2016-May-04 16:39 184 22.8
2016-May-04 16:29 184 0 gusting 4 22.8
2016-May-04 16:19 180 0 gusting 6 22.8
2016-May-04 16:09 190 22.8
2016-May-04 15:59 180 23.3
2016-May-04 15:49 231 23.3
2016-May-04 15:39 182 0 gusting 6 22.8
2016-May-04 15:29 185 1 gusting 6 23.9
2016-May-04 15:19 186 0 gusting 7 23.3
2016-May-04 15:09 200 1 gusting 7 23.3
2016-May-04 14:59 181 1 gusting 8 23.3
2016-May-04 14:49 182 0 gusting 6 23.3
2016-May-04 14:39 188 0 gusting 6 23.3
2016-May-04 14:29 179 1 gusting 6 23.3
2016-May-04 14:19 198 0 gusting 6 23.3
2016-May-04 14:09 184 0 gusting 6 22.8
2016-May-04 13:59 166 0 gusting 4 22.8
2016-May-04 13:49 168 0 gusting 4 22.8
2016-May-04 13:39 180 0 gusting 7 23.3
2016-May-04 13:29 169 0 gusting 6 22.8
2016-May-04 13:19 181 0 gusting 5 22.8
2016-May-04 13:09 176 0 gusting 6 22.8
2016-May-04 12:59 170 0 gusting 6 22.2
2016-May-04 12:49 181 22.8
2016-May-04 12:39 174 0 gusting 3 22.2
2016-May-04 12:19 173 0 gusting 3 22.2
2016-May-04 12:09 184 0 gusting 4 21.7
2016-May-04 11:59 182 0 gusting 6 21.7
2016-May-04 11:49 188 21.1
2016-May-04 11:09 182 1 gusting 6 22.2
2016-May-04 10:59 178 1 gusting 7 21.7
2016-May-04 10:49 170 0 gusting 5 21.7
2016-May-04 10:39 191 21.7
2016-May-04 10:29 180 1 gusting 7 21.7
2016-May-04 10:19 209 0 gusting 5 22.2
2016-May-04 10:09 249 0 gusting 6 22.2
2016-May-04 09:59 209 0 gusting 6 21.7
2016-May-04 09:49 217 0 gusting 4 21.1
2016-May-04 09:39 190 1 gusting 6 21.1
2016-May-04 09:29 202 1 gusting 6 21.1
2016-May-04 09:19 186 0 gusting 4 20.6
2016-May-04 09:09 172 0 gusting 6 19.4
2016-May-04 08:59 150 18.9
2016-May-04 08:49 085 18.3
2016-May-04 08:39 069 18.3
2016-May-04 08:29 069 17.8
2016-May-04 08:19 069 17.2
2016-May-04 08:09 069 17.2
2016-May-04 07:59 069 16.7
2016-May-04 07:49 066 16.7
2016-May-04 07:39 066 16.1
2016-May-04 07:29 066 15.0
2016-May-04 07:19 066 14.4
2016-May-04 07:09 066 13.9
2016-May-04 06:59 066 13.9
2016-May-04 06:49 066 12.8
2016-May-04 06:39 066 13.3
2016-May-04 06:29 066 13.3
2016-May-04 06:19 066 12.2
2016-May-04 06:09 066 11.1
2016-May-04 05:49 066 10.0
2016-May-04 05:39 067 9.4
2016-May-04 05:29 067 8.9
2016-May-04 05:19 067 8.9
2016-May-04 05:09 067 8.3
2016-May-04 04:59 063 1 gusting 3 8.3
2016-May-04 04:49 017 0 gusting 2 8.3
2016-May-04 04:39 343 8.9
2016-May-04 04:29 338 9.4
2016-May-04 04:19 338 10.0
2016-May-04 04:09 338 10.0
2016-May-04 03:59 338 10.6
2016-May-04 03:49 338 10.6
2016-May-04 03:39 338 10.6
2016-May-04 03:29 338 10.6
2016-May-04 03:09 338 10.6
2016-May-04 02:59 338 11.1
2016-May-04 02:49 338 11.7
2016-May-04 02:39 338 11.7
2016-May-04 02:29 338 11.7
2016-May-04 02:19 338 11.7
2016-May-04 02:09 338 0 gusting 2 11.7
2016-May-04 01:59 339 11.1
2016-May-04 01:49 335 1 gusting 2 10.6
2016-May-04 01:39 303 1 gusting 5 10.6
2016-May-04 01:29 193 10.6
2016-May-04 01:19 193 11.1
2016-May-04 01:09 193 11.7
2016-May-04 00:59 193 12.2
2016-May-04 00:49 193 12.8
2016-May-04 00:39 193 13.3
2016-May-04 00:29 193 13.3
2016-May-04 00:19 193 12.8
2016-May-04 00:09 193 12.8
2016-May-03 23:59 193 12.8
2016-May-03 23:49 193 12.8
2016-May-03 23:39 193 12.2
2016-May-03 23:29 193 12.2
2016-May-03 23:19 193 12.2
2016-May-03 23:09 193 12.8
2016-May-03 22:59 193 12.8
2016-May-03 22:49 193 13.3
2016-May-03 22:39 193 13.9
2016-May-03 22:29 193 14.4
2016-May-03 22:19 193 14.4
2016-May-03 22:09 193 15.0
2016-May-03 21:59 193 15.0
2016-May-03 21:49 193 15.0
2016-May-03 21:39 193 15.0
2016-May-03 21:29 193 15.0
2016-May-03 21:19 193 15.6
2016-May-03 21:09 193 15.6
2016-May-03 20:59 193 16.1
2016-May-03 20:49 193 16.1
2016-May-03 20:39 193 16.1
2016-May-03 20:19 193 17.2
2016-May-03 20:09 193 17.8
2016-May-03 19:59 193 18.3
2016-May-03 19:49 193 18.9
2016-May-03 19:39 193 19.4
2016-May-03 19:29 193 20.0
2016-May-03 19:19 193 20.6
2016-May-03 19:09 193 20.6
2016-May-03 18:59 193 21.1
2016-May-03 18:49 193 21.1
2016-May-03 18:39 193 21.1
2016-May-03 18:29 193 21.1
2016-May-03 18:19 193 21.7
2016-May-03 18:09 193 21.7
2016-May-03 17:59 193 21.7
2016-May-03 17:49 193 21.7
2016-May-03 17:39 193 22.2
2016-May-03 17:29 196 22.2
2016-May-03 17:19 181 0 gusting 3 22.2
2016-May-03 17:09 182 22.2
2016-May-03 16:59 182 22.2
2016-May-03 16:39 157 0 gusting 2 22.2
2016-May-03 16:29 184 0 gusting 4 23.3
2016-May-03 16:19 191 0 gusting 5 23.3
2016-May-03 16:09 175 23.3
2016-May-03 15:59 165 22.8
2016-May-03 15:49 188 22.8
2016-May-03 15:39 180 23.3
2016-May-03 15:29 178 0 gusting 4 23.3
2016-May-03 15:19 138 22.8
2016-May-03 15:09 140 22.8
2016-May-03 14:59 175 1 gusting 6 22.8
2016-May-03 14:49 095 0 gusting 4 22.8
2016-May-03 14:39 181 0 gusting 6 22.8
2016-May-03 14:29 169 22.8
2016-May-03 14:19 194 23.3
2016-May-03 14:09 171 22.2
2016-May-03 13:59 185 22.8
2016-May-03 13:49 195 23.3
2016-May-03 13:39 169 0 gusting 6 22.8
2016-May-03 13:29 167 0 gusting 3 22.8
2016-May-03 13:19 180 22.8
2016-May-03 13:09 186 0 gusting 5 22.8
2016-May-03 12:59 099 0 gusting 6 22.2
2016-May-03 12:39 195 0 gusting 6 22.8
2016-May-03 12:29 187 1 gusting 6 22.2
2016-May-03 12:19 112 22.2
2016-May-03 12:09 109 21.7